This is the latest recevied weather packets stored in our database for station/object IW4CYE-7. If no packets are shown the sender has not sent any weather packets the latest 10 day(s).
| Time | Temp. | Humidity | Pressure | Rain* | Wind** | Luminosity | Snow |
|---|---|---|---|---|---|---|---|
| 1788119242 | 24.44° C | 75% | 1003.4 hPa | 0 mm | - | - | - |
| 1788118642 | 24.44° C | 72% | 1003 hPa | 0 mm | - | - | - |
| 1788118042 | 24.44° C | 71% | 1003 hPa | 0 mm | - | - | - |
| 1788117442 | 25° C | 69% | 1003 hPa | 0 mm | - | - | - |
| 1788116842 | 25° C | 68% | 1003 hPa | 0 mm | - | - | - |
| 1788116242 | 25.56° C | 66% | 1003 hPa | 0 mm | - | - | - |
| 1788115642 | 25.56° C | 65% | 1003 hPa | 0 mm | - | - | - |
| 1788115042 | 26.11° C | 64% | 1003 hPa | 0 mm | - | - | - |
| 1788114442 | 26.11° C | 63% | 1002.4 hPa | 0 mm | - | - | - |
| 1788113842 | 26.67° C | 61% | 1002.7 hPa | 0 mm | - | - | - |
| 1788113242 | 27.22° C | 57% | 1002.4 hPa | 0 mm | - | - | - |
| 1788112642 | 27.22° C | 54% | 1002.4 hPa | 0 mm | - | - | - |
| 1788112042 | 27.78° C | 53% | 1002.4 hPa | 0 mm | - | - | - |
| 1788111442 | 28.33° C | 52% | 1002.4 hPa | 0 mm | - | - | - |
| 1788110842 | 28.89° C | 51% | 1002.4 hPa | 0 mm | - | - | - |
| 1788110242 | 28.89° C | 50% | 1002 hPa | 0 mm | - | - | - |
| 1788109642 | 29.44° C | 49% | 1002 hPa | 0 mm | - | - | - |
| 1788109042 | 30° C | 49% | 1002 hPa | 0 mm | - | - | - |
| 1788108442 | 30.56° C | 50% | 1002 hPa | 0 mm | - | - | - |
| 1788107842 | 30.56° C | 51% | 1002 hPa | 0 mm | - | - | - |
| 1788107242 | 31.11° C | 50% | 1002 hPa | 0 mm | - | - | - |
| 1788106642 | 31.11° C | 51% | 1002 hPa | 0 mm | - | - | - |
| 1788106042 | 31.11° C | 51% | 1002.4 hPa | 0 mm | - | - | - |
| 1788105442 | 31.11° C | 52% | 1002 hPa | 0 mm | - | - | - |
| 1788104842 | 31.67° C | 53% | 1002 hPa | 0 mm | - | - | - |
* Rain latest hour (hover to see other rain measurements)
** Current wind speed in m/s (hover to see current wind gust speed)